• In Hungary
  • List of Countries
  • For 7 days
  • Water Temperature
  • Satellite Maps
  • Weather Map
  • News
  • Weather Widgets
  • user-avatar
    Login

    Hourly Weather Asmera

    Today, 14 December, Thursday

    Time Temperature Precipitation Wind Pressure Humidity
    00:00 +13°C° 0 mm 1 mps 578 mmHg 44%
    01:00 +13°C° 0 mm 1 mps 578 mmHg 44%
    02:00 +12°C° 0 mm 1 mps 577 mmHg 44%
    03:00 +10°C° 0 mm 0 mps 577 mmHg 42%
    04:00 +10°C° 0 mm 0 mps 577 mmHg 41%
    05:00 +9°C° 0 mm 0 mps 577 mmHg 40%
    06:00 +9°C° 0 mm 0 mps 577 mmHg 39%
    07:00 +11°C° 0 mm 0 mps 578 mmHg 34%
    08:00 +14°C° 0 mm 1 mps 579 mmHg 28%
    09:00 +16°C° 0 mm 1 mps 580 mmHg 21%
    10:00 +19°C° 0 mm 1 mps 580 mmHg 20%
    11:00 +20°C° 0 mm 1 mps 581 mmHg 19%
    12:00 +20°C° 0 mm 2 mps 581 mmHg 18%
    13:00 +20°C° 0 mm 2 mps 581 mmHg 19%
    14:00 +21°C° 0 mm 2 mps 581 mmHg 19%
    15:00 +21°C° 0 mm 2 mps 580 mmHg 21%
    16:00 +20°C° 0 mm 2 mps 580 mmHg 23%
    17:00 +19°C° 0 mm 2 mps 580 mmHg 25%
    18:00 +18°C° 0 mm 2 mps 579 mmHg 26%
    19:00 +18°C° 0 mm 1 mps 579 mmHg 27%
    20:00 +16°C° 0 mm 1 mps 579 mmHg 28%
    21:00 +14°C° 0 mm 0 mps 579 mmHg 28%
    22:00 +14°C° 0 mm 0 mps 579 mmHg 29%
    23:00 +13°C° 0 mm 0 mps 578 mmHg 29%

    Tomorrow, 15 December, Friday

    Time Temperature Precipitation Wind Pressure Humidity
    00:00 +14°C° 0 mm 1 mps 578 mmHg 30%
    01:00 +13°C° 0 mm 1 mps 578 mmHg 31%
    02:00 +12°C° 0 mm 1 mps 577 mmHg 32%
    03:00 +12°C° 0 mm 1 mps 577 mmHg 33%
    04:00 +11°C° 0 mm 1 mps 577 mmHg 34%
    05:00 +11°C° 0 mm 1 mps 577 mmHg 35%
    06:00 +10°C° 0 mm 1 mps 577 mmHg 36%
    07:00 +12°C° 0 mm 1 mps 578 mmHg 33%
    08:00 +14°C° 0 mm 1 mps 579 mmHg 31%
    09:00 +16°C° 0 mm 1 mps 580 mmHg 28%
    10:00 +18°C° 0 mm 1 mps 580 mmHg 28%
    11:00 +18°C° 0 mm 2 mps 581 mmHg 28%
    12:00 +19°C° 0 mm 2 mps 581 mmHg 28%
    13:00 +19°C° 0 mm 3 mps 581 mmHg 29%
    14:00 +19°C° 0 mm 3 mps 580 mmHg 30%
    15:00 +19°C° 0 mm 3 mps 580 mmHg 31%
    16:00 +18°C° 0 mm 3 mps 580 mmHg 35%
    17:00 +17°C° 0 mm 3 mps 579 mmHg 39%
    18:00 +16°C° 0 mm 2 mps 579 mmHg 43%
    19:00 +15°C° 0 mm 2 mps 579 mmHg 47%
    20:00 +15°C° 0 mm 2 mps 579 mmHg 51%
    21:00 +14°C° 0 mm 1 mps 579 mmHg 55%
    22:00 +13°C° 0 mm 1 mps 579 mmHg 58%
    23:00 +13°C° 0 mm 1 mps 579 mmHg 61%

    Day after tomorrow, 16 December, Saturday

    Time Temperature Precipitation Wind Pressure Humidity
    00:00 +13°C° 0 mm 1 mps 578 mmHg 64%
    01:00 +12°C° 0 mm 1 mps 578 mmHg 66%
    02:00 +12°C° 0 mm 1 mps 578 mmHg 68%
    03:00 +11°C° 0 mm 1 mps 577 mmHg 71%
    04:00 +11°C° 0 mm 1 mps 577 mmHg 73%
    05:00 +10°C° 0 mm 2 mps 577 mmHg 75%
    06:00 +9°C° 0 mm 2 mps 577 mmHg 77%
    07:00 +10°C° 0 mm 2 mps 578 mmHg 71%
    08:00 +12°C° 0 mm 2 mps 579 mmHg 66%
    09:00 +13°C° 0 mm 2 mps 580 mmHg 61%
    10:00 +15°C° 0 mm 2 mps 580 mmHg 55%
    11:00 +16°C° 0 mm 2 mps 580 mmHg 49%
    12:00 +17°C° 0 mm 2 mps 580 mmHg 43%
    13:00 +17°C° 0 mm 2 mps 580 mmHg 43%
    14:00 +18°C° 0 mm 3 mps 579 mmHg 43%
    15:00 +18°C° 0 mm 3 mps 579 mmHg 42%
    16:00 +17°C° 0 mm 3 mps 579 mmHg 48%
    17:00 +16°C° 0 mm 3 mps 579 mmHg 54%
    18:00 +14°C° 0 mm 3 mps 578 mmHg 59%
    19:00 +14°C° 0 mm 3 mps 578 mmHg 63%
    20:00 +13°C° 0 mm 3 mps 579 mmHg 67%
    21:00 +14°C° 0 mm 2 mps 579 mmHg 70%
    22:00 +13°C° 0 mm 2 mps 579 mmHg 71%
    23:00 +13°C° 0 mm 2 mps 579 mmHg 73%

    17 December, Sunday

    Time Temperature Precipitation Wind Pressure Humidity
    00:00 +12°C° 0 mm 2 mps 578 mmHg 74%
    01:00 +12°C° 0 mm 1 mps 578 mmHg 75%
    02:00 +12°C° 0 mm 1 mps 578 mmHg 75%
    03:00 +11°C° 0 mm 1 mps 577 mmHg 76%
    04:00 +11°C° 0 mm 1 mps 577 mmHg 77%
    05:00 +11°C° 0 mm 1 mps 577 mmHg 78%
    06:00 +9°C° 0 mm 2 mps 577 mmHg 78%
    07:00 +10°C° 0 mm 2 mps 578 mmHg 73%
    08:00 +12°C° 0 mm 2 mps 579 mmHg 67%
    09:00 +13°C° 0 mm 2 mps 580 mmHg 61%
    10:00 +14°C° 0 mm 2 mps 580 mmHg 55%
    11:00 +16°C° 0 mm 3 mps 580 mmHg 48%
    12:00 +17°C° 0 mm 3 mps 580 mmHg 42%
    13:00 +18°C° 0 mm 3 mps 580 mmHg 42%
    14:00 +18°C° 0 mm 3 mps 580 mmHg 42%
    15:00 +18°C° 0 mm 3 mps 579 mmHg 42%
    16:00 +17°C° 0 mm 3 mps 579 mmHg 48%
    17:00 +17°C° 0 mm 3 mps 579 mmHg 54%
    18:00 +16°C° 0 mm 3 mps 578 mmHg 61%
    19:00 +14°C° 0 mm 3 mps 579 mmHg 65%
    20:00 +13°C° 0 mm 3 mps 579 mmHg 69%
    21:00 +13°C° 0 mm 3 mps 579 mmHg 73%
    22:00 +13°C° 0 mm 2 mps 579 mmHg 74%
    23:00 +13°C° 0 mm 2 mps 579 mmHg 75%

    18 December, Monday

    Time Temperature Precipitation Wind Pressure Humidity
    00:00 +13°C° 0 mm 2 mps 579 mmHg 75%
    01:00 +12°C° 0 mm 2 mps 578 mmHg 76%
    02:00 +12°C° 0 mm 2 mps 578 mmHg 76%
    03:00 +12°C° 0 mm 2 mps 578 mmHg 77%
    04:00 +10°C° 0 mm 2 mps 578 mmHg 77%
    05:00 +10°C° 0 mm 2 mps 578 mmHg 77%
    06:00 +10°C° 0 mm 2 mps 578 mmHg 77%
    07:00 +12°C° 0 mm 2 mps 579 mmHg 71%
    08:00 +13°C° 0 mm 2 mps 580 mmHg 65%
    09:00 +14°C° 0 mm 2 mps 580 mmHg 59%
    10:00 +16°C° 0 mm 2 mps 581 mmHg 53%
    11:00 +17°C° 0 mm 2 mps 581 mmHg 47%
    12:00 +18°C° 0 mm 2 mps 581 mmHg 41%
    13:00 +19°C° 0 mm 3 mps 580 mmHg 41%
    14:00 +19°C° 0 mm 3 mps 580 mmHg 41%
    15:00 +19°C° 0 mm 3 mps 580 mmHg 41%
    16:00 +18°C° 0 mm 3 mps 579 mmHg 45%
    17:00 +17°C° 0 mm 3 mps 579 mmHg 49%
    18:00 +15°C° 0 mm 4 mps 579 mmHg 54%
    19:00 +16°C° 0 mm 3 mps 579 mmHg 58%
    20:00 +14°C° 0 mm 3 mps 579 mmHg 63%
    21:00 +14°C° 0 mm 2 mps 579 mmHg 68%
    22:00 +14°C° 0 mm 2 mps 579 mmHg 69%
    23:00 +13°C° 0 mm 2 mps 579 mmHg 70%

    19 December, Tuesday

    Time Temperature Precipitation Wind Pressure Humidity
    00:00 +13°C° 0 mm 2 mps 578 mmHg 71%
    01:00 +13°C° 0 mm 2 mps 578 mmHg 72%
    02:00 +12°C° 0 mm 2 mps 578 mmHg 72%
    03:00 +12°C° 0 mm 2 mps 578 mmHg 73%
    04:00 +12°C° 0 mm 2 mps 578 mmHg 74%
    05:00 +12°C° 0 mm 1 mps 578 mmHg 74%
    06:00 +11°C° 0 mm 1 mps 578 mmHg 74%
    07:00 +12°C° 0 mm 1 mps 579 mmHg 68%
    08:00 +14°C° 0 mm 2 mps 580 mmHg 61%
    09:00 +15°C° 0 mm 2 mps 580 mmHg 54%
    10:00 +16°C° 0 mm 2 mps 581 mmHg 49%
    11:00 +17°C° 0 mm 2 mps 581 mmHg 43%
    12:00 +19°C° 0 mm 2 mps 581 mmHg 38%
    13:00 +19°C° 0 mm 2 mps 581 mmHg 37%
    14:00 +20°C° 0 mm 3 mps 581 mmHg 36%
    15:00 +20°C° 0 mm 3 mps 580 mmHg 35%
    16:00 +19°C° 0 mm 3 mps 580 mmHg 39%
    17:00 +18°C° 0 mm 3 mps 580 mmHg 44%
    18:00 +17°C° 0 mm 4 mps 579 mmHg 48%
    19:00 +16°C° 0 mm 3 mps 579 mmHg 53%
    20:00 +14°C° 0 mm 3 mps 579 mmHg 58%
    21:00 +15°C° 0 mm 2 mps 579 mmHg 62%
    22:00 +14°C° 0 mm 2 mps 579 mmHg 64%
    23:00 +14°C° 0 mm 2 mps 579 mmHg 65%
    Show more